Kuchera_Ratio
0.0 0.0 0.0 0.0 0.0 0.0 0.0 0.0 0.0 0.0 0.0 0.0 0.0 0.0 0.0 0.0 0.0 0.0 0.0 0.4 0.5 1.5 3.6 5.2 5.8 6.8 5.2 5.0 6.9 9.7 8.5 10.2 11.3 12.0 10.3 10.0 11.9 12.9 12.9 12.8 13.1 12.7 14.2 15.1 15.6 17.1 15.7 7.7 10.3 9.7 11.6 11.4 11.1 10.5
0.0 0.0 0.0 0.0 0.0 0.0 0.0 0.0 0.0 0.0 0.0 0.0 0.0 0.0 0.0 0.0 0.0 0.0 0.0 0.1 0.8 3.6 5.0 6.2 7.1 7.6 9.0 9.3 9.4 9.1 9.8 9.6 4.7 9.3 12.4 12.0 12.9 13.9 14.3 13.0 14.2 14.8 11.9 12.4 11.1 10.7 13.2 13.0 13.0 13.0 12.2 11.7 12.8 12.9
0.0 0.0 0.0 0.0 0.0 0.0 0.0 0.0 0.0 0.0 0.0 0.0 0.0 0.0 0.0 0.0 0.0 0.0 2.6 3.4 1.7 7.1 8.3 8.4 10.9 6.3 3.1 7.0 6.2 10.5 8.6 9.6 9.9 10.3 10.2 12.5 12.6 13.0 14.2 13.9 13.9 13.8 13.8 12.2 13.2 13.5 13.4 14.4 14.4 13.4 11.3 12.8 13.0 12.8
0.0 0.0 0.0 0.0 0.0 0.0 0.0 0.0 0.0 0.0 0.0 0.0 0.0 0.0 0.0 0.0 0.0 0.0 4.3 3.8 4.3 6.7 9.5 12.2 5.2 9.7 2.6 5.2 6.5 7.4 8.9 12.1 11.9 12.3 12.0 12.3 12.3 13.6 13.3 13.5 13.6 13.6 13.9 13.6 14.1 14.5 14.6 15.1 15.4 14.7 15.5 15.1 15.3 14.8
0.0 0.0 0.0 0.0 0.0 0.0 0.0 0.0 0.0 0.0 0.0 0.0 0.0 0.0 0.0 0.0 0.0 1.9 2.5 3.2 2.5 7.9 10.2 13.7 10.6 6.2 4.0 5.3 9.0 10.3 12.6 13.1 12.7 13.1 13.6 13.5 14.3 14.7 15.7 16.0 15.5 15.2 15.1 13.5 12.2 15.3 15.9 16.2 16.0 15.3 16.4 16.9 16.8 18.1
0.0 0.0 0.0 0.0 0.0 0.0 0.0 0.0 0.0 0.0 0.0 0.0 0.0 0.0 0.0 0.0 0.4 4.3 8.2 3.0 0.8 5.0 11.1 14.9 10.9 12.5 8.8 6.2 9.0 13.6 13.1 14.0 13.9 13.7 14.9 15.5 15.8 15.6 15.4 15.1 17.0 16.5 16.8 17.4 17.5 17.7 17.4 17.1 17.2 16.3 17.9 18.4 18.6 19.5
0.0 0.0 0.0 0.0 0.0 0.0 0.0 0.0 0.0 0.0 0.0 0.0 0.0 0.0 0.0 0.0 0.9 7.0 12.2 5.6 0.4 4.9 12.2 15.9 16.1 13.0 12.1 10.0 10.3 11.0 13.2 15.9 14.8 16.1 16.6 16.1 17.0 16.1 16.1 15.8 18.0 17.5 18.3 18.8 19.0 18.2 19.5 19.6 19.8 18.5 18.6 19.2 20.8 21.0
0.0 0.0 0.0 0.0 0.0 0.0 0.0 0.0 0.0 0.0 0.0 0.0 0.0 0.0 0.0 0.0 0.2 6.8 3.9 1.5 3.7 9.5 12.2 16.3 17.2 15.3 12.2 14.1 15.2 12.5 14.4 14.5 16.8 17.5 16.6 16.9 16.9 17.0 19.2 19.9 20.1 19.9 20.1 20.5 20.7 20.5 20.0 20.1 19.9 20.9 20.8 21.1 22.4 22.5
0.0 0.0 0.0 0.0 0.0 0.0 0.0 0.0 0.0 0.0 0.0 0.0 0.0 0.0 3.2 7.7 12.5 10.9 0.4 4.3 8.0 10.5 16.4 17.2 18.4 18.2 13.2 14.1 14.9 14.8 16.3 16.8 17.7 18.2 17.9 16.8 19.4 20.5 21.6 21.8 21.8 21.9 22.1 22.4 22.4 22.4 22.1 22.7 22.8 22.9 23.1 23.2 23.3 23.5
0.0 0.0 0.0 0.0 0.0 0.0 0.0 0.0 0.0 0.0 0.0 0.0 4.5 12.1 14.4 9.8 3.0 5.8 11.7 12.6 13.7 14.9 15.2 18.1 17.2 17.1 16.8 16.7 16.8 17.2 18.0 20.0 19.0 19.9 17.6 19.0 22.7 22.8 23.0 23.5 23.5 23.6 23.7 23.7 23.3 23.7 23.7 23.7 23.7 23.8 24.0 24.2 24.5 24.6
0.0 0.0 0.0 0.0 0.0 0.0 0.0 0.0 0.0 0.0 0.0 7.9 13.1 13.1 9.1 8.8 12.6 14.2 15.9 16.6 17.8 18.0 16.4 17.6 19.0 18.6 16.1 17.9 18.1 18.5 20.2 21.4 21.3 20.9 20.4 22.3 22.7 24.2 24.7 24.7 24.9 24.7 24.6 24.3 24.0 23.8 23.9 24.0 24.0 24.4 24.7 25.0 25.3 25.7
0.0 0.0 0.0 0.0 0.0 0.0 0.0 0.0 0.0 2.5 5.8 6.4 8.3 12.7 13.4 14.6 14.3 15.9 19.1 19.0 19.0 19.9 17.0 17.7 17.4 17.7 17.3 16.8 18.4 20.5 21.4 21.8 22.8 20.7 21.6 23.9 23.2 25.7 25.6 25.4 25.1 24.7 24.5 24.3 24.3 24.4 24.4 24.2 24.5 24.8 25.2 25.5 25.7 26.1
0.0 0.0 0.0 0.0 0.0 0.0 0.0 0.0 0.0 0.0 6.3 10.8 13.8 15.5 16.5 17.2 18.4 19.6 20.6 20.4 19.8 18.2 17.6 18.0 18.5 18.1 16.8 18.1 20.9 21.4 21.6 23.2 21.3 23.5 24.8 23.7 24.1 24.7 24.6 24.6 24.5 24.4 24.4 24.5 24.7 25.0 24.9 25.1 25.2 25.4 25.6 25.8 26.1 26.3
0.0 0.0 0.0 0.0 0.0 0.0 0.0 0.0 0.0 4.4 11.4 15.2 15.9 16.5 18.8 20.2 20.9 21.0 20.2 19.5 17.8 18.8 18.1 18.1 18.9 19.9 19.7 20.6 22.2 22.7 24.7 24.1 25.2 26.3 26.1 22.9 23.2 23.6 23.5 23.5 23.6 24.1 24.4 24.7 25.0 25.1 25.1 25.0 25.0 25.3 25.6 25.3 25.6 25.3
0.0 0.0 0.0 0.0 0.0 0.0 0.0 0.0 1.0 10.2 14.2 16.2 16.6 19.5 19.9 20.2 20.4 20.1 20.2 20.3 18.0 17.3 17.9 18.9 19.2 21.4 21.7 22.1 23.5 24.6 24.8 26.3 25.1 25.2 22.8 21.1 21.8 22.3 22.7 23.4 23.7 23.4 23.9 24.1 23.8 24.3 23.8 23.8 24.7 24.4 24.4 25.1 25.5 25.5
0.0 0.0 1.7 0.0 0.0 0.0 0.0 5.3 10.9 12.2 15.8 17.0 18.1 19.4 19.9 20.6 20.2 20.2 20.1 20.1 18.3 19.0 18.9 20.8 22.2 22.7 24.2 24.9 24.0 25.7 25.9 26.9 24.3 21.8 20.1 20.1 20.7 21.0 21.4 21.5 21.7 22.1 22.7 22.8 22.9 23.5 23.6 24.4 24.9 24.7 25.3 26.0 26.3 26.5
0.0 5.7 0.0 0.0 0.0 0.8 3.5 11.8 13.4 16.4 17.0 18.0 18.9 19.3 19.8 19.5 19.3 19.9 18.2 19.1 19.7 20.4 20.8 21.5 22.9 23.9 24.7 25.8 25.9 23.9 24.7 21.9 20.3 19.9 19.1 19.6 20.3 21.4 22.3 21.9 21.9 22.3 22.9 23.6 24.3 24.4 24.5 24.6 25.8 26.6 26.8 24.3 25.6 25.7
4.9 3.8 0.0 0.0 2.1 9.5 13.2 15.1 16.2 17.6 18.1 18.8 19.1 19.6 19.6 19.2 20.0 19.6 21.1 21.3 20.9 21.7 22.7 22.0 22.6 23.9 25.1 26.1 25.5 22.5 20.9 19.8 19.1 19.4 19.8 22.2 23.1 23.4 23.1 23.4 24.1 24.5 24.7 25.2 25.5 25.6 26.0 26.4 26.6 25.4 25.3 24.9 26.0 26.4
3.3 3.3 2.0 2.9 7.8 13.7 15.9 17.4 17.9 18.4 18.7 18.9 19.2 19.5 20.0 20.2 20.6 20.8 21.3 22.1 22.9 21.1 23.2 23.9 24.2 24.7 23.9 24.5 22.4 21.1 21.2 21.2 21.5 21.9 22.6 23.8 23.8 23.9 24.0 24.1 24.5 24.8 25.2 25.8 25.8 25.0 24.5 25.1 24.6 24.2 24.2 24.6 25.5 24.1
1.6 3.9 4.9 9.5 12.2 14.8 17.6 18.2 18.6 18.8 19.2 19.4 19.6 19.9 20.4 20.6 20.9 21.2 21.8 22.4 23.5 23.9 24.3 24.1 23.7 23.5 23.2 22.2 22.2 22.5 23.0 23.8 23.8 23.7 23.4 23.9 24.7 24.7 24.6 24.4 23.8 24.6 25.3 25.6 25.8 23.3 24.2 25.0 24.4 24.5 24.5 24.6 25.5 25.4
11.7 12.6 12.2 13.4 15.5 16.4 18.2 18.9 19.1 19.0 19.1 19.2 19.3 20.4 20.8 20.7 21.1 21.7 22.7 23.3 24.5 24.3 23.4 23.5 23.3 23.2 23.4 23.3 23.2 23.3 23.8 24.4 24.8 24.1 24.4 24.8 23.9 24.7 24.6 24.4 25.5 25.3 26.0 25.6 26.1 25.5 23.4 24.2 22.9 22.9 24.1 24.0 23.2 23.0
15.2 12.3 14.4 15.8 17.0 18.2 18.8 19.2 19.1 19.1 19.5 19.8 20.4 20.6 21.3 21.7 22.0 23.0 23.9 24.6 24.5 22.9 23.1 23.1 23.2 23.3 23.3 23.3 23.5 24.2 24.9 25.4 25.5 25.6 23.5 24.2 24.5 24.5 24.3 24.4 25.4 25.4 25.6 25.4 25.3 25.6 24.8 23.9 23.9 24.2 24.9 24.7 23.4 23.6
15.6 15.8 16.5 17.1 18.1 18.6 19.1 19.2 19.3 19.6 19.7 20.6 21.4 21.6 21.8 22.3 23.5 24.7 23.8 24.1 23.2 22.8 23.2 23.4 23.4 23.4 23.6 23.8 24.0 24.8 25.0 25.3 25.3 25.3 25.2 25.0 24.9 25.0 25.0 24.9 25.1 25.9 25.8 24.7 24.0 25.1 25.4 23.4 23.0 23.2 24.2 24.5 25.2 25.4
16.4 17.0 17.8 17.6 18.4 19.1 19.4 19.7 20.1 20.2 20.6 21.1 21.5 22.3 22.7 24.5 24.9 24.7 24.6 24.2 22.6 22.4 22.9 23.4 23.4 23.6 24.0 24.2 24.4 23.6 24.0 24.5 24.9 24.6 24.4 24.5 24.5 24.4 24.1 24.4 24.3 24.2 24.7 24.7 25.1 25.4 25.5 25.7 23.4 24.9 25.8 26.8 27.0 27.6
17.9 18.5 18.9 19.2 19.3 19.7 19.9 20.2 21.0 21.4 21.6 22.2 23.5 23.6 24.5 25.4 25.6 25.7 25.6 24.0 21.9 21.6 22.6 23.3 23.4 23.6 24.1 24.1 23.4 23.2 24.0 24.0 24.1 23.9 22.7 23.7 23.9 24.6 24.7 24.5 24.6 24.0 23.4 25.9 25.9 25.4 25.7 25.7 26.8 27.3 27.4 27.3 27.5 27.7
18.7 18.7 18.5 18.9 19.5 20.1 20.7 21.3 21.9 22.8 23.2 23.7 23.9 25.3 26.2 26.6 27.3 26.5 25.5 21.7 21.3 21.5 21.5 21.9 22.3 22.9 23.6 23.6 23.2 22.9 22.8 22.9 24.0 24.5 23.3 23.5 24.0 25.1 25.6 26.3 26.2 24.3 22.2 24.6 25.6 26.0 25.7 25.4 26.3 27.2 27.6 27.2 23.6 23.2
18.7 18.5 18.4 19.0 19.8 21.0 21.8 22.2 22.6 23.4 24.2 25.0 25.6 26.0 26.6 29.1 29.1 25.5 21.9 22.2 22.6 22.8 22.9 23.1 23.2 22.7 21.6 20.8 21.8 22.7 22.9 22.8 23.2 23.7 23.6 24.2 24.5 25.0 25.5 25.8 26.0 23.5 21.8 24.0 24.5 24.6 25.2 25.3 25.6 25.9 26.4 25.8 25.8 25.9
18.7 18.5 19.3 19.9 20.8 21.5 22.7 23.0 23.1 23.4 24.5 25.0 25.8 25.6 25.4 25.5 24.9 23.8 24.0 24.5 24.3 23.8 23.7 23.8 23.5 24.1 24.1 23.7 23.7 24.2 24.0 24.3 24.6 24.9 24.5 24.1 23.6 23.5 23.2 23.8 24.2 21.7 21.0 20.9 21.2 21.3 22.1 22.9 25.3 25.3 25.8 26.0 25.2 24.2
19.0 19.4 20.5 21.2 21.8 22.8 22.9 22.9 23.1 24.0 24.1 25.0 25.7 25.7 25.8 23.5 24.4 25.6 26.1 26.2 26.0 25.9 26.6 27.0 25.6 25.2 24.7 24.3 24.1 24.5 24.5 25.2 25.7 25.9 26.1 26.7 25.8 24.3 23.4 23.8 23.8 22.9 23.0 23.3 20.4 19.2 20.4 20.5 20.5 20.5 22.0 24.2 24.4 23.7
19.5 21.1 22.1 22.7 23.3 23.1 22.9 23.6 24.2 24.7 25.4 26.1 26.9 27.0 26.4 26.1 26.8 27.2 27.4 26.8 26.5 26.9 28.1 26.8 26.0 25.1 25.3 24.4 24.8 24.2 24.2 24.3 24.7 25.9 26.7 26.6 25.0 23.0 23.2 23.7 23.9 23.8 23.7 23.9 23.8 23.2 20.1 21.3 21.7 22.5 23.9 24.1 24.3 24.7
21.5 22.2 23.3 23.6 23.8 24.0 24.5 24.9 25.4 25.8 25.8 26.3 27.0 27.9 28.1 28.7 27.9 27.3 27.6 27.3 27.0 26.9 26.1 25.9 25.6 25.9 26.0 26.0 26.8 27.0 26.4 25.1 25.1 25.6 26.1 25.5 25.4 25.1 24.3 23.6 23.2 22.9 22.9 23.3 23.5 23.4 23.6 24.0 24.5 24.9 25.0 25.5 26.2 23.8
22.9 23.4 24.2 25.0 25.2 25.2 25.5 25.8 26.4 26.7 26.8 27.5 28.2 28.3 28.4 29.3 28.8 27.5 26.2 27.0 27.0 26.6 26.1 26.7 27.0 27.0 26.3 26.7 26.5 26.2 23.6 24.8 25.7 25.5 26.1 25.1 24.4 23.7 23.4 22.6 21.5 20.9 21.5 22.8 23.5 24.4 24.4 24.5 24.5 24.5 24.9 25.5 25.2 25.1
24.6 24.7 25.1 26.0 25.9 25.8 26.5 27.4 27.8 28.0 28.0 28.5 28.2 28.1 28.1 29.0 29.2 28.0 26.6 26.4 26.3 25.8 25.8 25.9 26.3 26.6 25.9 26.0 26.0 26.2 24.2 25.9 26.4 20.4 19.8 19.1 18.2 18.2 19.2 21.2 20.7 21.2 22.5 24.1 25.5 25.3 25.5 26.4 26.1 25.7 25.3 25.4 25.7 25.5